Year,Month,Day,Hour,Minute,Value (Times are PST for temperature in C)
2015,07,17,00,00,15.00
2015,07,17,00,01,15.00
2015,07,17,00,02,14.90
2015,07,17,00,03,14.90
2015,07,17,00,04,14.80
2015,07,17,00,05,14.80
2015,07,17,00,06,14.70
2015,07,17,00,07,14.70
2015,07,17,00,08,14.70
2015,07,17,00,09,14.60
2015,07,17,00,10,14.60
2015,07,17,00,11,14.60
2015,07,17,00,12,14.60
2015,07,17,00,13,14.60
2015,07,17,00,14,14.50
2015,07,17,00,15,14.50
2015,07,17,00,16,14.50
2015,07,17,00,17,14.50
2015,07,17,00,18,14.50
2015,07,17,00,19,14.60
2015,07,17,00,20,14.60
2015,07,17,00,21,14.60
2015,07,17,00,22,14.60
2015,07,17,00,23,14.50
2015,07,17,00,24,14.50
2015,07,17,00,25,14.40
2015,07,17,00,26,14.40
2015,07,17,00,27,14.30
2015,07,17,00,28,14.30
2015,07,17,00,29,14.30
2015,07,17,00,30,14.20
2015,07,17,00,31,14.20
2015,07,17,00,32,14.20
2015,07,17,00,33,14.20
2015,07,17,00,34,14.20
2015,07,17,00,35,14.20
2015,07,17,00,36,14.20
2015,07,17,00,37,14.20
2015,07,17,00,38,14.20
2015,07,17,00,39,14.20
2015,07,17,00,40,14.20
2015,07,17,00,41,14.20
2015,07,17,00,42,14.20
2015,07,17,00,43,14.20
2015,07,17,00,44,14.20
2015,07,17,00,45,14.10
2015,07,17,00,46,14.10
2015,07,17,00,47,14.10
2015,07,17,00,48,14.10
2015,07,17,00,49,14.00
2015,07,17,00,50,14.00
2015,07,17,00,51,14.00
2015,07,17,00,52,14.00
2015,07,17,00,53,13.90
2015,07,17,00,54,14.00
2015,07,17,00,55,14.00
2015,07,17,00,56,14.00
2015,07,17,00,57,14.00
2015,07,17,00,58,14.00
2015,07,17,00,59,14.00
2015,07,17,01,00,14.00
2015,07,17,01,01,14.00
2015,07,17,01,02,13.90
2015,07,17,01,03,13.90
2015,07,17,01,04,13.90
2015,07,17,01,05,13.90
2015,07,17,01,06,13.90
2015,07,17,01,07,13.90
2015,07,17,01,08,13.90
2015,07,17,01,09,13.90
2015,07,17,01,10,13.90
2015,07,17,01,11,13.90
2015,07,17,01,12,13.90
2015,07,17,01,13,13.80
2015,07,17,01,14,13.80
2015,07,17,01,15,13.80
2015,07,17,01,16,13.80
2015,07,17,01,17,13.80
2015,07,17,01,18,13.80
2015,07,17,01,19,13.80
2015,07,17,01,20,13.80
2015,07,17,01,21,13.80
2015,07,17,01,22,13.80
2015,07,17,01,23,13.80
2015,07,17,01,24,13.80
2015,07,17,01,25,13.80
2015,07,17,01,26,13.80
2015,07,17,01,27,13.70
2015,07,17,01,28,13.70
2015,07,17,01,29,13.70
2015,07,17,01,30,13.60
2015,07,17,01,31,13.60
2015,07,17,01,32,13.60
2015,07,17,01,33,13.50
2015,07,17,01,34,13.50
2015,07,17,01,35,13.40
2015,07,17,01,36,13.40
2015,07,17,01,37,13.30
2015,07,17,01,38,13.30
2015,07,17,01,39,13.30
2015,07,17,01,40,13.30
2015,07,17,01,41,13.30
2015,07,17,01,42,13.30
2015,07,17,01,43,13.40
2015,07,17,01,44,13.40
2015,07,17,01,45,13.40
2015,07,17,01,46,13.40
2015,07,17,01,47,13.40
2015,07,17,01,48,13.40
2015,07,17,01,49,13.40
2015,07,17,01,50,13.40
2015,07,17,01,51,13.40
2015,07,17,01,52,13.40
2015,07,17,01,53,13.30
2015,07,17,01,54,13.30
2015,07,17,01,55,13.30
2015,07,17,01,56,13.30
2015,07,17,01,57,13.30
2015,07,17,01,58,13.30
2015,07,17,01,59,13.30
2015,07,17,02,00,13.30
2015,07,17,02,01,13.30
2015,07,17,02,02,13.30
2015,07,17,02,03,13.30
2015,07,17,02,04,13.30
2015,07,17,02,05,13.30
2015,07,17,02,06,13.30
2015,07,17,02,07,13.30
2015,07,17,02,08,13.30
2015,07,17,02,09,13.30
2015,07,17,02,10,13.30
2015,07,17,02,11,13.30
2015,07,17,02,12,13.20
2015,07,17,02,13,13.20
2015,07,17,02,14,13.20
2015,07,17,02,15,13.20
2015,07,17,02,16,13.20
2015,07,17,02,17,13.10
2015,07,17,02,18,13.10
2015,07,17,02,19,13.10
2015,07,17,02,20,13.10
2015,07,17,02,21,13.10
2015,07,17,02,22,13.10
2015,07,17,02,23,13.10
2015,07,17,02,24,13.10
2015,07,17,02,25,13.10
2015,07,17,02,26,13.00
2015,07,17,02,27,13.00
2015,07,17,02,28,13.00
2015,07,17,02,29,12.90
2015,07,17,02,30,12.90
2015,07,17,02,31,12.90
2015,07,17,02,32,12.90
2015,07,17,02,33,12.90
2015,07,17,02,34,12.90
2015,07,17,02,35,12.90
2015,07,17,02,36,12.90
2015,07,17,02,37,12.80
2015,07,17,02,38,12.90
2015,07,17,02,39,12.90
2015,07,17,02,40,12.80
2015,07,17,02,41,12.80
2015,07,17,02,42,12.90
2015,07,17,02,43,12.90
2015,07,17,02,44,12.90
2015,07,17,02,45,12.90
2015,07,17,02,46,12.90
2015,07,17,02,47,12.90
2015,07,17,02,48,12.90
2015,07,17,02,49,12.90
2015,07,17,02,50,12.80
2015,07,17,02,51,12.80
2015,07,17,02,52,12.80
2015,07,17,02,53,12.80
2015,07,17,02,54,12.80
2015,07,17,02,55,12.80
2015,07,17,02,56,12.80
2015,07,17,02,57,12.80
2015,07,17,02,58,12.70
2015,07,17,02,59,12.70
2015,07,17,03,00,12.70
2015,07,17,03,01,12.70
2015,07,17,03,02,12.80
2015,07,17,03,03,12.80
2015,07,17,03,04,12.80
2015,07,17,03,05,12.80
2015,07,17,03,06,12.80
2015,07,17,03,07,12.80
2015,07,17,03,08,12.80
2015,07,17,03,09,12.70
2015,07,17,03,10,12.70
2015,07,17,03,11,12.70
2015,07,17,03,12,12.70
2015,07,17,03,13,12.70
2015,07,17,03,14,12.70
2015,07,17,03,15,12.70
2015,07,17,03,16,12.70
2015,07,17,03,17,12.60
2015,07,17,03,18,12.60
2015,07,17,03,19,12.60
2015,07,17,03,20,12.60
2015,07,17,03,21,12.60
2015,07,17,03,22,12.60
2015,07,17,03,23,12.50
2015,07,17,03,24,12.50
2015,07,17,03,25,12.50
2015,07,17,03,26,12.50
2015,07,17,03,27,12.50
2015,07,17,03,28,12.50
2015,07,17,03,29,12.50
2015,07,17,03,30,12.50
2015,07,17,03,31,12.60
2015,07,17,03,32,12.60
2015,07,17,03,33,12.60
2015,07,17,03,34,12.60
2015,07,17,03,35,12.60
2015,07,17,03,36,12.60
2015,07,17,03,37,12.60
2015,07,17,03,38,12.60
2015,07,17,03,39,12.50
2015,07,17,03,40,12.50
2015,07,17,03,41,12.50
2015,07,17,03,42,12.40
2015,07,17,03,43,12.40
2015,07,17,03,44,12.40
2015,07,17,03,45,12.40
2015,07,17,03,46,12.40
2015,07,17,03,47,12.40
2015,07,17,03,48,12.40
2015,07,17,03,49,12.40
2015,07,17,03,50,12.40
2015,07,17,03,51,12.40
2015,07,17,03,52,12.40
2015,07,17,03,53,12.40
2015,07,17,03,54,12.40
2015,07,17,03,55,12.40
2015,07,17,03,56,12.40
2015,07,17,03,57,12.40
2015,07,17,03,58,12.40
2015,07,17,03,59,12.40
2015,07,17,04,00,12.30
2015,07,17,04,01,12.30
2015,07,17,04,02,12.30
2015,07,17,04,03,12.30
2015,07,17,04,04,12.30
2015,07,17,04,05,12.30
2015,07,17,04,06,12.30
2015,07,17,04,07,12.30
2015,07,17,04,08,12.30
2015,07,17,04,09,12.30
2015,07,17,04,10,12.30
2015,07,17,04,11,12.30
2015,07,17,04,12,12.30
2015,07,17,04,13,12.40
2015,07,17,04,14,12.40
2015,07,17,04,15,12.40
2015,07,17,04,16,12.40
2015,07,17,04,17,12.40
2015,07,17,04,18,12.40
2015,07,17,04,19,12.40
2015,07,17,04,20,12.40
2015,07,17,04,21,12.40
2015,07,17,04,22,12.40
2015,07,17,04,23,12.30
2015,07,17,04,24,12.30
2015,07,17,04,25,12.30
2015,07,17,04,26,12.30
2015,07,17,04,27,12.30
2015,07,17,04,28,12.30
2015,07,17,04,29,12.30
2015,07,17,04,30,12.20
2015,07,17,04,31,12.20
2015,07,17,04,32,12.20
2015,07,17,04,33,12.20
2015,07,17,04,34,12.20
2015,07,17,04,35,12.20
2015,07,17,04,36,12.20
2015,07,17,04,37,12.20
2015,07,17,04,38,12.20
2015,07,17,04,39,12.20
2015,07,17,04,40,12.20
2015,07,17,04,41,12.20
2015,07,17,04,42,12.20
2015,07,17,04,43,12.20
2015,07,17,04,44,12.20
2015,07,17,04,45,12.10
2015,07,17,04,46,12.20
2015,07,17,04,47,12.20
2015,07,17,04,48,12.10
2015,07,17,04,49,12.10
2015,07,17,04,50,12.10
2015,07,17,04,51,12.10
2015,07,17,04,52,12.10
2015,07,17,04,53,12.10
2015,07,17,04,54,12.10
2015,07,17,04,55,12.10
2015,07,17,04,56,12.10
2015,07,17,04,57,12.10
2015,07,17,04,58,12.10
2015,07,17,04,59,12.10
2015,07,17,05,00,12.10
2015,07,17,05,01,12.00
2015,07,17,05,02,12.00
2015,07,17,05,03,12.00
2015,07,17,05,04,12.00
2015,07,17,05,05,12.00
2015,07,17,05,06,12.00
2015,07,17,05,07,12.00
2015,07,17,05,08,12.00
2015,07,17,05,09,12.00
2015,07,17,05,10,12.00
2015,07,17,05,11,12.00
2015,07,17,05,12,12.00
2015,07,17,05,13,12.00
2015,07,17,05,14,12.00
2015,07,17,05,15,12.00
2015,07,17,05,16,12.00
2015,07,17,05,17,12.00
2015,07,17,05,18,12.00
2015,07,17,05,19,12.00
2015,07,17,05,20,11.90
2015,07,17,05,21,11.90
2015,07,17,05,22,11.90
2015,07,17,05,23,11.90
2015,07,17,05,24,11.90
2015,07,17,05,25,11.90
2015,07,17,05,26,11.90
2015,07,17,05,27,11.90
2015,07,17,05,28,11.90
2015,07,17,05,29,11.90
2015,07,17,05,30,11.90
2015,07,17,05,31,11.90
2015,07,17,05,32,11.90
2015,07,17,05,33,11.90
2015,07,17,05,34,11.90
2015,07,17,05,35,11.90
2015,07,17,05,36,11.90
2015,07,17,05,37,11.90
2015,07,17,05,38,11.90
2015,07,17,05,39,11.80
2015,07,17,05,40,11.80
2015,07,17,05,41,11.80
2015,07,17,05,42,11.80
2015,07,17,05,43,11.80
2015,07,17,05,44,11.80
2015,07,17,05,45,11.80
2015,07,17,05,46,11.80
2015,07,17,05,47,11.80
2015,07,17,05,48,11.80
2015,07,17,05,49,11.80
2015,07,17,05,50,11.80
2015,07,17,05,51,11.80
2015,07,17,05,52,11.80
2015,07,17,05,53,11.80
2015,07,17,05,54,11.90
2015,07,17,05,55,11.90
2015,07,17,05,56,11.90
2015,07,17,05,57,11.90
2015,07,17,05,58,11.90
2015,07,17,05,59,11.90
2015,07,17,06,00,11.90
2015,07,17,06,01,11.90
2015,07,17,06,02,11.90
2015,07,17,06,03,11.90
2015,07,17,06,04,11.90
2015,07,17,06,05,11.90
2015,07,17,06,06,11.90
2015,07,17,06,07,11.90
2015,07,17,06,08,11.90
2015,07,17,06,09,11.90
2015,07,17,06,10,11.90
2015,07,17,06,11,11.90
2015,07,17,06,12,11.90
2015,07,17,06,13,11.90
2015,07,17,06,14,11.90
2015,07,17,06,15,12.00
2015,07,17,06,16,12.00
2015,07,17,06,17,12.10
2015,07,17,06,18,12.10
2015,07,17,06,19,12.10
2015,07,17,06,20,12.10
2015,07,17,06,21,12.10
2015,07,17,06,22,12.10
2015,07,17,06,23,12.10
2015,07,17,06,24,12.10
2015,07,17,06,25,12.10
2015,07,17,06,26,12.10
2015,07,17,06,27,12.10
2015,07,17,06,28,12.10
2015,07,17,06,29,12.10
2015,07,17,06,30,12.10
2015,07,17,06,31,12.10
2015,07,17,06,32,12.10
2015,07,17,06,33,12.10
2015,07,17,06,34,12.10
2015,07,17,06,35,12.10
2015,07,17,06,36,12.10
2015,07,17,06,37,12.10
2015,07,17,06,38,12.10
2015,07,17,06,39,12.10
2015,07,17,06,40,12.10
2015,07,17,06,41,12.20
2015,07,17,06,42,12.20
2015,07,17,06,43,12.20
2015,07,17,06,44,12.20
2015,07,17,06,45,12.30
2015,07,17,06,46,12.30
2015,07,17,06,47,12.30
2015,07,17,06,48,12.30
2015,07,17,06,49,12.40
2015,07,17,06,50,12.40
2015,07,17,06,51,12.40
2015,07,17,06,52,12.40
2015,07,17,06,53,12.50
2015,07,17,06,54,12.50
2015,07,17,06,55,12.60
2015,07,17,06,56,12.60
2015,07,17,06,57,12.60
2015,07,17,06,58,12.70
2015,07,17,06,59,12.70
2015,07,17,07,00,12.70
2015,07,17,07,01,12.60
2015,07,17,07,02,12.60
2015,07,17,07,03,12.60
2015,07,17,07,04,12.60
2015,07,17,07,05,12.70
2015,07,17,07,06,12.70
2015,07,17,07,07,12.70
2015,07,17,07,08,12.70
2015,07,17,07,09,12.70
2015,07,17,07,10,12.70
2015,07,17,07,11,12.80
2015,07,17,07,12,12.80
2015,07,17,07,13,12.80
2015,07,17,07,14,12.90
2015,07,17,07,15,12.90
2015,07,17,07,16,13.00
2015,07,17,07,17,13.10
2015,07,17,07,18,13.10
2015,07,17,07,19,13.20
2015,07,17,07,20,13.20
2015,07,17,07,21,13.30
2015,07,17,07,22,13.30
2015,07,17,07,23,13.40
2015,07,17,07,24,13.40
2015,07,17,07,25,13.50
2015,07,17,07,26,13.60
2015,07,17,07,27,13.60
2015,07,17,07,28,13.70
2015,07,17,07,29,13.80
2015,07,17,07,30,13.90
2015,07,17,07,31,14.00
2015,07,17,07,32,14.10
2015,07,17,07,33,14.20
2015,07,17,07,34,14.20
2015,07,17,07,35,14.30
2015,07,17,07,36,14.40
2015,07,17,07,37,14.50
2015,07,17,07,38,14.60
2015,07,17,07,39,14.70
2015,07,17,07,40,14.80
2015,07,17,07,41,15.00
2015,07,17,07,42,15.00
2015,07,17,07,43,15.00
2015,07,17,07,44,15.00
2015,07,17,07,45,15.10
2015,07,17,07,46,15.30
2015,07,17,07,47,15.40
2015,07,17,07,48,15.50
2015,07,17,07,49,15.60
2015,07,17,07,50,15.70
2015,07,17,07,51,15.80
2015,07,17,07,52,15.90
2015,07,17,07,53,16.00
2015,07,17,07,54,16.20
2015,07,17,07,55,16.30
2015,07,17,07,56,16.40
2015,07,17,07,57,16.60
2015,07,17,07,58,16.70
2015,07,17,07,59,16.80
2015,07,17,08,00,16.90
2015,07,17,08,01,17.10
2015,07,17,08,02,17.20
2015,07,17,08,03,17.30
2015,07,17,08,04,17.30
2015,07,17,08,05,17.20
2015,07,17,08,06,17.20
2015,07,17,08,07,17.20
2015,07,17,08,08,17.20
2015,07,17,08,09,17.20
2015,07,17,08,10,17.20
2015,07,17,08,11,17.20
2015,07,17,08,12,17.30
2015,07,17,08,13,17.30
2015,07,17,08,14,17.30
2015,07,17,08,15,17.30
2015,07,17,08,16,17.30
2015,07,17,08,17,17.40
2015,07,17,08,18,17.40
2015,07,17,08,19,17.50
2015,07,17,08,20,17.50
2015,07,17,08,21,17.60
2015,07,17,08,22,17.60
2015,07,17,08,23,17.70
2015,07,17,08,24,17.70
2015,07,17,08,25,17.70
2015,07,17,08,26,17.70
2015,07,17,08,27,17.70
2015,07,17,08,28,17.80
2015,07,17,08,29,17.80
2015,07,17,08,30,17.80
2015,07,17,08,31,17.90
2015,07,17,08,32,18.00
2015,07,17,08,33,18.00
2015,07,17,08,34,18.10
2015,07,17,08,35,18.10
2015,07,17,08,36,18.20
2015,07,17,08,37,18.20
2015,07,17,08,38,18.20
2015,07,17,08,39,18.20
2015,07,17,08,40,18.20
2015,07,17,08,41,18.20
2015,07,17,08,42,18.30
2015,07,17,08,43,18.30
2015,07,17,08,44,18.30
2015,07,17,08,45,18.40
2015,07,17,08,46,18.40
2015,07,17,08,47,18.40
2015,07,17,08,48,18.40
2015,07,17,08,49,18.40
2015,07,17,08,50,18.40
2015,07,17,08,51,18.40
2015,07,17,08,52,18.40
2015,07,17,08,53,18.40
2015,07,17,08,54,18.40
2015,07,17,08,55,18.40
2015,07,17,08,56,18.30
2015,07,17,08,57,18.30
2015,07,17,08,58,18.30
2015,07,17,08,59,18.30
2015,07,17,09,00,18.30
2015,07,17,09,01,18.30
2015,07,17,09,02,18.30
2015,07,17,09,03,18.30
2015,07,17,09,04,18.30
2015,07,17,09,05,18.30
2015,07,17,09,06,18.30
2015,07,17,09,07,18.30
2015,07,17,09,08,18.40
2015,07,17,09,09,18.40
2015,07,17,09,10,18.40
2015,07,17,09,11,18.40
2015,07,17,09,12,18.50
2015,07,17,09,13,18.50
2015,07,17,09,14,18.40
2015,07,17,09,15,18.40
2015,07,17,09,16,18.40
2015,07,17,09,17,18.40
2015,07,17,09,18,18.40
2015,07,17,09,19,18.40
2015,07,17,09,20,18.40
2015,07,17,09,21,18.40
2015,07,17,09,22,18.40
2015,07,17,09,23,18.40
2015,07,17,09,24,18.40
2015,07,17,09,25,18.50
2015,07,17,09,26,18.50
2015,07,17,09,27,18.60
2015,07,17,09,28,18.60
2015,07,17,09,29,18.60
2015,07,17,09,30,18.60
2015,07,17,09,31,18.60
2015,07,17,09,32,18.60
2015,07,17,09,33,18.60
2015,07,17,09,34,18.60
2015,07,17,09,35,18.60
2015,07,17,09,36,18.60
2015,07,17,09,37,18.60
2015,07,17,09,38,18.60
2015,07,17,09,39,18.60
2015,07,17,09,40,18.70
2015,07,17,09,41,18.70
2015,07,17,09,42,18.70
2015,07,17,09,43,18.70
2015,07,17,09,44,18.80
2015,07,17,09,45,18.80
2015,07,17,09,46,18.80
2015,07,17,09,47,18.80
2015,07,17,09,48,18.90
2015,07,17,09,49,18.90
2015,07,17,09,50,18.90
2015,07,17,09,51,19.00
2015,07,17,09,52,19.00
2015,07,17,09,53,19.10
2015,07,17,09,54,19.10
2015,07,17,09,55,19.20
2015,07,17,09,56,19.20
2015,07,17,09,57,19.30
2015,07,17,09,58,19.30
2015,07,17,09,59,19.30
2015,07,17,10,00,19.30
2015,07,17,10,01,19.40
2015,07,17,10,02,19.40
2015,07,17,10,03,19.50
2015,07,17,10,04,19.50
2015,07,17,10,05,19.50
2015,07,17,10,06,19.50
2015,07,17,10,07,19.50
2015,07,17,10,08,19.60
2015,07,17,10,09,19.60
2015,07,17,10,10,19.70
2015,07,17,10,11,19.70
2015,07,17,10,12,19.70
2015,07,17,10,13,19.80
2015,07,17,10,14,19.80
2015,07,17,10,15,19.90
2015,07,17,10,16,19.90
2015,07,17,10,17,19.90
2015,07,17,10,18,19.90
2015,07,17,10,19,19.80
2015,07,17,10,20,19.80
2015,07,17,10,21,19.70
2015,07,17,10,22,19.70
2015,07,17,10,23,19.70
2015,07,17,10,24,19.70
2015,07,17,10,25,19.70
2015,07,17,10,26,19.70
2015,07,17,10,27,19.70
2015,07,17,10,28,19.60
2015,07,17,10,29,19.60
2015,07,17,10,30,19.60
2015,07,17,10,31,19.60
2015,07,17,10,32,19.60
2015,07,17,10,33,19.60
2015,07,17,10,34,19.70
2015,07,17,10,35,19.70
2015,07,17,10,36,19.70
2015,07,17,10,37,19.70
2015,07,17,10,38,19.70
2015,07,17,10,39,19.70
2015,07,17,10,40,19.70
2015,07,17,10,41,19.80
2015,07,17,10,42,19.80
2015,07,17,10,43,19.80
2015,07,17,10,44,19.90
2015,07,17,10,45,19.90
2015,07,17,10,46,20.00
2015,07,17,10,47,20.00
2015,07,17,10,48,20.00
2015,07,17,10,49,20.00
2015,07,17,10,50,20.10
2015,07,17,10,51,20.10
2015,07,17,10,52,20.00
2015,07,17,10,53,20.00
2015,07,17,10,54,20.00
2015,07,17,10,55,19.90
2015,07,17,10,56,19.90
2015,07,17,10,57,19.90
2015,07,17,10,58,20.00
2015,07,17,10,59,20.00
2015,07,17,11,00,20.00
2015,07,17,11,01,20.10
2015,07,17,11,02,20.10
2015,07,17,11,03,20.10
2015,07,17,11,04,20.10
2015,07,17,11,05,20.10
2015,07,17,11,06,20.10
2015,07,17,11,07,20.10
2015,07,17,11,08,20.10
2015,07,17,11,09,20.20
2015,07,17,11,10,20.20
2015,07,17,11,11,20.30
2015,07,17,11,12,20.30
2015,07,17,11,13,20.40
2015,07,17,11,14,20.40
2015,07,17,11,15,20.50
2015,07,17,11,16,20.60
2015,07,17,11,17,20.60
2015,07,17,11,18,20.70
2015,07,17,11,19,20.80
2015,07,17,11,20,20.90
2015,07,17,11,21,21.00
2015,07,17,11,22,21.00
2015,07,17,11,23,21.10
2015,07,17,11,24,21.10
2015,07,17,11,25,21.10
2015,07,17,11,26,21.10
2015,07,17,11,27,21.10
2015,07,17,11,28,21.00
2015,07,17,11,29,21.00
2015,07,17,11,30,20.90
2015,07,17,11,31,20.90
2015,07,17,11,32,20.90
2015,07,17,11,33,20.90
2015,07,17,11,34,21.00
2015,07,17,11,35,21.00
2015,07,17,11,36,21.10
2015,07,17,11,37,21.10
2015,07,17,11,38,21.20
2015,07,17,11,39,21.20
2015,07,17,11,40,21.20
2015,07,17,11,41,21.30
2015,07,17,11,42,21.30
2015,07,17,11,43,21.30
2015,07,17,11,44,21.30
2015,07,17,11,45,21.30
2015,07,17,11,46,21.30
2015,07,17,11,47,21.30
2015,07,17,11,48,21.30
2015,07,17,11,49,21.30
2015,07,17,11,50,21.40
2015,07,17,11,51,21.40
2015,07,17,11,52,21.40
2015,07,17,11,53,21.40
2015,07,17,11,54,21.40
2015,07,17,11,55,21.40
2015,07,17,11,56,21.50
2015,07,17,11,57,21.50
2015,07,17,11,58,21.60
2015,07,17,11,59,21.60
2015,07,17,12,00,21.70
2015,07,17,12,01,21.70
2015,07,17,12,02,21.80
2015,07,17,12,03,21.80
2015,07,17,12,04,21.80
2015,07,17,12,05,21.90
2015,07,17,12,06,22.00
2015,07,17,12,07,22.10
2015,07,17,12,08,22.10
2015,07,17,12,09,22.20
2015,07,17,12,10,22.10
2015,07,17,12,11,22.10
2015,07,17,12,12,22.10
2015,07,17,12,13,22.10
2015,07,17,12,14,22.10
2015,07,17,12,15,22.10
2015,07,17,12,16,22.10
2015,07,17,12,17,22.10
2015,07,17,12,18,22.00
2015,07,17,12,19,22.00
2015,07,17,12,20,22.00
2015,07,17,12,21,21.90
2015,07,17,12,22,21.80
2015,07,17,12,23,21.80
2015,07,17,12,24,21.80
2015,07,17,12,25,21.80
2015,07,17,12,26,21.80
2015,07,17,12,27,21.80
2015,07,17,12,28,21.90
2015,07,17,12,29,21.90
2015,07,17,12,30,22.00
2015,07,17,12,31,22.10
2015,07,17,12,32,22.10
2015,07,17,12,33,22.20
2015,07,17,12,34,22.20
2015,07,17,12,35,22.30
2015,07,17,12,36,22.40
2015,07,17,12,37,22.40
2015,07,17,12,38,22.50
2015,07,17,12,39,22.60
2015,07,17,12,40,22.60
2015,07,17,12,41,22.60
2015,07,17,12,42,22.70
2015,07,17,12,43,22.80
2015,07,17,12,44,22.80
2015,07,17,12,45,22.80
2015,07,17,12,46,22.90
2015,07,17,12,47,22.90
2015,07,17,12,48,22.90
2015,07,17,12,49,22.90
2015,07,17,12,50,22.80
2015,07,17,12,51,22.70
2015,07,17,12,52,22.70
2015,07,17,12,53,22.60
2015,07,17,12,54,22.60
2015,07,17,12,55,22.60
2015,07,17,12,56,22.60
2015,07,17,12,57,22.60
2015,07,17,12,58,22.50
2015,07,17,12,59,22.40
2015,07,17,13,00,22.30
2015,07,17,13,01,22.20
2015,07,17,13,02,22.20
2015,07,17,13,03,22.20
2015,07,17,13,04,22.20
2015,07,17,13,05,22.20
2015,07,17,13,06,22.30
2015,07,17,13,07,22.30
2015,07,17,13,08,22.30
2015,07,17,13,09,22.30
2015,07,17,13,10,22.30
2015,07,17,13,11,22.40
2015,07,17,13,12,22.50
2015,07,17,13,13,22.50
2015,07,17,13,14,22.50
2015,07,17,13,15,22.60
2015,07,17,13,16,22.60
2015,07,17,13,17,22.60
2015,07,17,13,18,22.60
2015,07,17,13,19,22.60
2015,07,17,13,20,22.60
2015,07,17,13,21,22.60
2015,07,17,13,22,22.60
2015,07,17,13,23,22.70
2015,07,17,13,24,22.70
2015,07,17,13,25,22.80
2015,07,17,13,26,22.90
2015,07,17,13,27,22.90
2015,07,17,13,28,23.00
2015,07,17,13,29,23.10
2015,07,17,13,30,23.10
2015,07,17,13,31,23.20
2015,07,17,13,32,23.30
2015,07,17,13,33,23.30
2015,07,17,13,34,23.40
2015,07,17,13,35,23.40
2015,07,17,13,36,23.50
2015,07,17,13,37,23.60
2015,07,17,13,38,23.60
2015,07,17,13,39,23.70
2015,07,17,13,40,23.70
2015,07,17,13,41,23.80
2015,07,17,13,42,23.90
2015,07,17,13,43,24.00
2015,07,17,13,44,24.20
2015,07,17,13,45,24.20
2015,07,17,13,46,24.20
2015,07,17,13,47,24.20
2015,07,17,13,48,24.20
2015,07,17,13,49,24.20
2015,07,17,13,50,24.10
2015,07,17,13,51,24.00
2015,07,17,13,52,23.90
2015,07,17,13,53,23.90
2015,07,17,13,54,23.90
2015,07,17,13,55,23.90
2015,07,17,13,56,23.90
2015,07,17,13,57,23.80
2015,07,17,13,58,23.80
2015,07,17,13,59,23.80
2015,07,17,14,00,23.80
2015,07,17,14,01,23.80
2015,07,17,14,02,23.80
2015,07,17,14,03,23.80
2015,07,17,14,04,23.80
2015,07,17,14,05,23.80
2015,07,17,14,06,23.80
2015,07,17,14,07,23.90
2015,07,17,14,08,23.90
2015,07,17,14,09,24.00
2015,07,17,14,10,24.00
2015,07,17,14,11,24.10
2015,07,17,14,12,24.20
2015,07,17,14,13,24.20
2015,07,17,14,14,24.20
2015,07,17,14,15,24.10
2015,07,17,14,16,24.10
2015,07,17,14,17,24.10
2015,07,17,14,18,24.00
2015,07,17,14,19,24.00
2015,07,17,14,20,24.00
2015,07,17,14,21,24.00
2015,07,17,14,22,24.00
2015,07,17,14,23,24.10
2015,07,17,14,24,24.10
2015,07,17,14,25,24.20
2015,07,17,14,26,24.20
2015,07,17,14,27,24.30
2015,07,17,14,28,24.30
2015,07,17,14,29,24.20
2015,07,17,14,30,24.10
2015,07,17,14,31,24.10
2015,07,17,14,32,24.10
2015,07,17,14,33,24.10
2015,07,17,14,34,24.10
2015,07,17,14,35,24.20
2015,07,17,14,36,24.10
2015,07,17,14,37,24.10
2015,07,17,14,38,24.00
2015,07,17,14,39,23.90
2015,07,17,14,40,23.90
2015,07,17,14,41,24.00
2015,07,17,14,42,24.00
2015,07,17,14,43,24.00
2015,07,17,14,44,24.00
2015,07,17,14,45,24.10
2015,07,17,14,46,24.10
2015,07,17,14,47,24.20
2015,07,17,14,48,24.20
2015,07,17,14,49,24.20
2015,07,17,14,50,24.10
2015,07,17,14,51,24.10
2015,07,17,14,52,24.10
2015,07,17,14,53,24.20
2015,07,17,14,54,24.40
2015,07,17,14,55,24.50
2015,07,17,14,56,24.50
2015,07,17,14,57,24.50
2015,07,17,14,58,24.60
2015,07,17,14,59,24.70
2015,07,17,15,00,24.80
2015,07,17,15,01,24.90
2015,07,17,15,02,24.90
2015,07,17,15,03,24.90
2015,07,17,15,04,25.00
2015,07,17,15,05,25.00
2015,07,17,15,06,25.00
2015,07,17,15,07,24.90
2015,07,17,15,08,24.90
2015,07,17,15,09,24.90
2015,07,17,15,10,25.00
2015,07,17,15,11,25.00
2015,07,17,15,12,25.10
2015,07,17,15,13,25.10
2015,07,17,15,14,25.10
2015,07,17,15,15,25.10
2015,07,17,15,16,25.20
2015,07,17,15,17,25.20
2015,07,17,15,18,25.20
2015,07,17,15,19,25.20
2015,07,17,15,20,25.20
2015,07,17,15,21,25.30
2015,07,17,15,22,25.30
2015,07,17,15,23,25.30
2015,07,17,15,24,25.30
2015,07,17,15,25,25.30
2015,07,17,15,26,25.30
2015,07,17,15,27,25.30
2015,07,17,15,28,25.30
2015,07,17,15,29,25.30
2015,07,17,15,30,25.30
2015,07,17,15,31,25.30
2015,07,17,15,32,25.30
2015,07,17,15,33,25.40
2015,07,17,15,34,25.40
2015,07,17,15,35,25.40
2015,07,17,15,36,25.40
2015,07,17,15,37,25.40
2015,07,17,15,38,25.40
2015,07,17,15,39,25.30
2015,07,17,15,40,25.30
2015,07,17,15,41,25.30
2015,07,17,15,42,25.10
2015,07,17,15,43,25.10
2015,07,17,15,44,25.10
2015,07,17,15,45,25.20
2015,07,17,15,46,25.30
2015,07,17,15,47,25.30
2015,07,17,15,48,25.30
2015,07,17,15,49,25.30
2015,07,17,15,50,25.30
2015,07,17,15,51,25.40
2015,07,17,15,52,25.40
2015,07,17,15,53,25.40
2015,07,17,15,54,25.40
2015,07,17,15,55,25.40
2015,07,17,15,56,25.30
2015,07,17,15,57,25.30
2015,07,17,15,58,25.30
2015,07,17,15,59,25.30
2015,07,17,16,00,25.40
2015,07,17,16,01,25.40
2015,07,17,16,02,25.50
2015,07,17,16,03,25.50
2015,07,17,16,04,25.50
2015,07,17,16,05,25.50
2015,07,17,16,06,25.40
2015,07,17,16,07,25.30
2015,07,17,16,08,25.30
2015,07,17,16,09,25.30
2015,07,17,16,10,25.30
2015,07,17,16,11,25.30
2015,07,17,16,12,25.30
2015,07,17,16,13,25.30
2015,07,17,16,14,25.30
2015,07,17,16,15,25.40
2015,07,17,16,16,25.40
2015,07,17,16,17,25.40
2015,07,17,16,18,25.50
2015,07,17,16,19,25.50
2015,07,17,16,20,25.40
2015,07,17,16,21,25.40
2015,07,17,16,22,25.40
2015,07,17,16,23,25.50
2015,07,17,16,24,25.50
2015,07,17,16,25,25.40
2015,07,17,16,26,25.40
2015,07,17,16,27,25.30
2015,07,17,16,28,25.30
2015,07,17,16,29,25.40
2015,07,17,16,30,25.30
2015,07,17,16,31,25.30
2015,07,17,16,32,25.30
2015,07,17,16,33,25.30
2015,07,17,16,34,25.20
2015,07,17,16,35,25.10
2015,07,17,16,36,25.10
2015,07,17,16,37,25.00
2015,07,17,16,38,25.00
2015,07,17,16,39,25.00
2015,07,17,16,40,25.00
2015,07,17,16,41,25.00
2015,07,17,16,42,25.10
2015,07,17,16,43,25.10
2015,07,17,16,44,25.20
2015,07,17,16,45,25.20
2015,07,17,16,46,25.30
2015,07,17,16,47,25.30
2015,07,17,16,48,25.40
2015,07,17,16,49,25.40
2015,07,17,16,50,25.40
2015,07,17,16,51,25.30
2015,07,17,16,52,25.30
2015,07,17,16,53,25.30
2015,07,17,16,54,25.30
2015,07,17,16,55,25.30
2015,07,17,16,56,25.40
2015,07,17,16,57,25.40
2015,07,17,16,58,25.50
2015,07,17,16,59,25.60
2015,07,17,17,00,25.70
2015,07,17,17,01,25.80
2015,07,17,17,02,25.90
2015,07,17,17,03,25.90
2015,07,17,17,04,25.80
2015,07,17,17,05,25.80
2015,07,17,17,06,25.70
2015,07,17,17,07,25.80
2015,07,17,17,08,25.80
2015,07,17,17,09,25.80
2015,07,17,17,10,25.90
2015,07,17,17,11,26.00
2015,07,17,17,12,26.10
2015,07,17,17,13,26.20
2015,07,17,17,14,26.30
2015,07,17,17,15,26.40
2015,07,17,17,16,26.50
2015,07,17,17,17,26.60
2015,07,17,17,18,26.70
2015,07,17,17,19,26.70